Retour au catalogue

COSMOS 249 DEB

ActifLEO
NORAD 3923·DEBRIS·🇷🇺 Russia

Lancé Oct 20, 1968 depuis Baikonur Cosmodrome

Loading…

Prochains Passages (prochaines 24 heures)

TLE

FraisSource: Space-Track

Époque: Sep 14, 2026, 04:24 UTC

1 03923U 68091BR  26257.18370486  .00000333  00000-0  26662-3 0  9994
2 03923  62.2297 187.8431 0575351 229.2572 125.7131 13.45640240728594

Suivez COSMOS 249 DEB en temps réel avec AllMySat

Download on the App Store